Location: *
(30.4476°N, 114.3798°E)
Time: 03:42:16
(UTC+00:00)

Palapa 6 Rocket - Pass Details

Date: 09 April 2020
Orbit: 485 x 1217 km, 22.7° (Epoch: 31 May)

Event Time Altitude Azimuth Distance (km) Brightness Sun altitude
Exits shadow 20:30:36 25° 175° (S) 1,032 4.0 -19.5°
Drops below altitude 10° 20:33:34 10° 126° (SE) 1,729 5.8 -18.9°
Sets 20:36:11 0° 113° (ESE) 2,694 7.0 -18.4°
